[[{"header":{"parameterUnit":"m.s-1","parameterCategory":1,"la1":30.2991,"la2":30.254,"lo1":-89.0895,"lo2":-89.0444,"dy":0.0017,"dx":0.0017,"nx":28,"ny":28,"refTime":"2025-03-13T09:00:00:Z","depth":0,"parameterNumber":2,"parameterNumberName":"U-component_of_WINDS"},"data":[0,0,0,0,0,0,0,0,0,0,0,0,0,0,0,0,0,0,0,0,0,0,0,0,0,0,0,0,0,0,0,0,0,0,0,0,0,0,0,0,0,0,0,0,0,0,0,0,0,0,0,0,0,0,0,0,0,0,-4.5056,-4.5058,0,-4.5242,-4.5244,-4.5246,-4.5294,-4.5293,-4.5291,-4.529,-4.5479,-4.5485,-4.5491,0,0,0,0,0,0,0,0,0,0,0,0,0,-4.4742,-4.4747,-4.5056,-4.5058,-4.5061,-4.5242,-4.5244,-4.5247,-4.5294,-4.5293,-4.5291,-4.529,-4.5477,-4.5484,-4.5492,0,0,0,0,0,0,0,0,0,0,0,0,0,-4.4898,-4.4749,-4.5056,-4.5106,-4.5113,-4.5241,-4.5244,-4.5247,-4.5294,-4.5293,-4.5291,-4.5289,-4.5475,-4.5484,-4.5493,-4.5584,0,0,-4.5521,-4.5525,0,0,0,0,0,0,0,0,-4.4889,-4.4909,-4.5096,-4.5103,-4.511,-4.5243,-4.5203,-4.536,-4.5295,-4.5225,-4.529,-4.5288,-4.5402,-4.5417,-4.5456,-4.5593,-4.5601,-4.5522,-4.5527,-4.5531,-4.5534,0,0,0,0,0,0,0,-4.4878,-4.4902,-4.513,-4.5099,-4.5108,-4.5119,-4.514,-4.5233,-4.5321,-4.5231,-4.5235,-4.5256,-4.5405,-4.5447,-4.546,-4.5604,-4.5521,-4.5529,-4.5535,-4.5539,-4.5824,-4.5826,0,0,0,0,0,0,-4.4859,-4.4892,-4.5124,-4.5135,-4.4993,-4.5126,-4.5149,-4.5202,-4.532,-4.5336,-4.5258,-4.5258,-4.5432,-4.545,-4.5467,-4.5581,-4.5531,-4.554,-4.5545,-4.5822,-4.5825,-4.5827,0,0,0,0,0,0,-4.4852,-4.4879,-4.5116,-4.5015,-4.5046,-4.5134,-4.5193,-4.5207,-4.5248,-4.534,-4.5356,-4.5284,-4.5431,-4.5454,-4.5554,-4.5588,-4.5544,-4.5552,-4.582,-4.5823,-4.5826,-4.5808,0,0,0,0,0,0,-4.4843,-4.4876,-4.4912,-4.5015,-4.5051,-4.52,-4.5195,-4.5212,-4.5264,-4.5266,-4.5369,-4.5384,-4.5432,-4.554,-4.5563,-4.56,-4.5559,-4.5817,-4.5821,-4.5825,-4.5806,-4.5811,-4.5814,0,0,0,0,0,-4.4831,-4.4899,-4.4913,-4.4941,-4.5098,-4.5202,-4.5223,-4.5276,-4.5266,-4.5302,-4.5362,-4.5381,-4.5581,-4.555,-4.5577,-4.5616,-4.5815,-4.582,-4.5825,-4.5805,-4.581,-4.5814,0,0,0,0,0,0,-4.4797,-4.4914,-4.493,-4.5034,-4.5108,-4.521,-4.5257,-4.528,-4.5358,-4.5357,-4.542,-4.5443,-4.5538,-4.5588,-4.5551,-4.571,-4.5698,-4.5708,-4.5674,-4.568,-4.5683,-4.5668,-4.5567,0,0,0,0,0,-4.4801,-4.4877,-4.4975,-4.5057,-4.5093,-4.5169,-4.5217,-4.5252,-4.533,-4.5362,-4.5428,-4.5504,-4.5584,-4.5635,-4.5713,-4.5815,-4.5837,-4.5855,-4.5859,-4.5861,-4.5869,-4.5925,-4.5933,-4.5842,-4.5842,-4.5842,0,0,-4.4811,-4.4884,-4.4928,-4.5052,-4.5113,-4.5189,-4.5195,-4.5275,-4.5332,-4.5374,-4.5472,-4.5524,-4.5612,-4.5713,-4.5761,-4.5757,-4.5899,-4.5867,-4.5869,-4.5875,-4.5931,-4.5939,-4.5947,-4.5846,-4.5845,-4.5845,0,0,-4.4868,-4.4931,-4.5006,-4.5068,-4.5161,-4.5211,-4.5228,-4.5328,-4.5364,-4.5464,-4.5496,-4.5565,-4.5702,-4.5763,-4.5812,-4.5893,-4.5913,-4.5917,-4.5936,-4.599,-4.5997,-4.6004,-4.6031,-4.6041,-4.5924,-4.5924,-4.5924,0,-4.4868,-4.4984,-4.5042,-4.5121,-4.5174,-4.5216,-4.5292,-4.5349,-4.5462,-4.5498,-4.5492,-4.5665,-4.5727,-4.5842,-4.5862,-4.5901,-4.5923,-4.5904,-4.5992,-4.5999,-4.6006,-4.6033,-4.6043,-4.5924,-4.5924,-4.5924,-4.5924,0,-4.4979,-4.506,-4.5109,-4.5218,-4.5277,-4.5354,-4.5422,-4.5475,-4.5506,-4.5556,-4.5657,-4.5734,-4.5829,-4.5859,-4.589,-4.5979,-4.5973,-4.598,-4.5968,-4.6014,-4.604,-4.605,-4.5924,-4.5924,-4.5924,-4.5924,0,0,-4.5017,-4.5158,-4.5174,-4.5224,-4.533,-4.5393,-4.5472,-4.5565,-4.5609,-4.5686,-4.5753,-4.5868,-4.5875,-4.593,-4.5968,-4.6016,-4.6073,-4.6016,-4.6019,-4.6022,-4.6175,-4.6168,-4.6179,-4.6088,-4.609,-4.6092,-4.6167,0,-4.5085,-4.5228,-4.5282,-4.5398,-4.5473,-4.5514,-4.5583,-4.5655,-4.5705,-4.5775,-4.583,-4.591,-4.5913,-4.5947,-4.5996,-4.6056,-4.6104,-4.6051,-4.615,-4.6153,-4.6124,-4.6193,-4.6186,-4.6253,-4.6177,-4.6179,-4.6181,0,-4.5184,-4.5262,-4.5385,-4.5482,-4.5515,-4.5576,-4.5665,-4.5733,-4.5815,-4.5848,-4.5911,-4.5946,-4.603,-4.6015,-4.6131,-4.6094,-4.6138,-4.6173,-4.6177,-4.6186,-4.6167,-4.6202,-4.6275,-4.6284,-4.6198,-4.6196,-4.6195,0,-4.5196,-4.5333,-4.5425,-4.5466,-4.5582,-4.5623,-4.5673,-4.5755,-4.5807,-4.5885,-4.592,-4.6007,-4.6054,-4.6121,-4.6178,-4.6163,-4.6289,-4.6279,-4.6317,-4.6316,-4.634,-4.6337,-4.6419,-4.6372,-4.6371,-4.6371,-4.6371,0,-4.5266,-4.5339,-4.5432,-4.5488,-4.5571,-4.5633,-4.5714,-4.5767,-4.5839,-4.5906,-4.5948,-4.601,-4.6083,-4.6154,-4.62,-4.6288,-4.631,-4.6338,-4.6349,-4.6333,-4.6329,-4.6361,-4.6357,-4.6374,-4.6373,-4.6373,-4.6372,0,-4.5293,-4.5359,-4.5461,-4.5562,-4.5589,-4.5646,-4.5733,-4.5788,-4.5841,-4.5924,-4.5948,-4.6029,-4.6115,-4.618,-4.6291,-4.6322,-4.6415,-4.6428,-4.6387,-4.6392,-4.6426,-4.6421,-4.6529,-4.6546,-4.6489,-4.6489,-4.649,0,-4.5332,-4.539,-4.5497,-4.5545,-4.5594,-4.5671,-4.5725,-4.5789,-4.5843,-4.5942,-4.5985,-4.6074,-4.6148,-4.6284,-4.6353,-4.6438,-4.6452,-4.6484,-4.6464,-4.6447,-4.645,-4.6445,-4.645,-4.6485,-4.6486,-4.6486,-4.6486,0,-4.5393,-4.5423,-4.5499,-4.5586,-4.5649,-4.5721,-4.5793,-4.583,-4.5907,-4.5966,-4.6054,-4.6112,-4.6226,-4.6313,-4.6405,-4.6457,-4.6484,-4.6492,-4.6505,-4.6488,-4.6461,-4.6475,-4.6392,-4.6489,-4.6488,-4.6488,-4.6488,-4.6488,-4.5427,-4.5479,-4.5563,-4.5646,-4.5708,-4.5774,-4.5832,-4.5891,-4.5966,-4.6063,-4.6097,-4.6188,-4.6269,-4.6396,-4.6449,-4.6521,-4.6521,-4.654,-4.6545,-4.6548,-4.6545,-4.6452,-4.6538,-4.6538,-4.6538,-4.6538,-4.6538,0,-4.5489,-4.5545,-4.5621,-4.5721,-4.5786,-4.5807,-4.5889,-4.5942,-4.6021,-4.6095,-4.6168,-4.6269,-4.6354,-4.643,-4.6518,-4.6561,-4.6576,-4.6582,-4.6578,-4.659,-4.6541,-4.652,-4.6569,-4.6569,-4.6569,-4.6569,-4.6569,-4.6569,-4.5528,-4.5618,-4.5658,-4.5778,-4.5834,-4.5923,-4.5968,-4.603,-4.6089,-4.62,-4.6271,-4.6321,-4.6396,-4.649,-4.6569,-4.6589,-4.6619,-4.6621,-4.6644,-4.6597,-4.6593,-4.6589,-4.657,-4.6628,-4.6628,-4.6687,-4.6687,-4.6688]},{"header":{"parameterUnit":"m.s-1","parameterCategory":1,"la1":30.2991,"la2":30.254,"lo1":-89.0895,"lo2":-89.0444,"dy":0.0017,"dx":0.0017,"nx":28,"ny":28,"refTime":"2025-03-13T09:00:00:Z","depth":0,"parameterNumber":3,"parameterNumberName":"V-component_of_WINDS"},"data":[0,0,0,0,0,0,0,0,0,0,0,0,0,0,0,0,0,0,0,0,0,0,0,0,0,0,0,0,0,0,0,0,0,0,0,0,0,0,0,0,0,0,0,0,0,0,0,0,0,0,0,0,0,0,0,0,0,0,5.0882,5.0884,0,5.1046,5.1048,5.105,5.1094,5.1093,5.1092,5.1091,5.1259,5.1264,5.1269,0,0,0,0,0,0,0,0,0,0,0,0,0,5.0608,5.0613,5.0882,5.0884,5.0886,5.1046,5.1048,5.1051,5.1094,5.1093,5.1092,5.1091,5.1257,5.1263,5.127,0,0,0,0,0,0,0,0,0,0,0,0,0,5.0745,5.0615,5.0882,5.0927,5.0933,5.1046,5.1049,5.1051,5.1095,5.1093,5.1092,5.109,5.1255,5.1263,5.1271,5.135,0,0,5.1295,5.1299,0,0,0,0,0,0,0,0,5.0738,5.0755,5.0919,5.0924,5.0931,5.1048,5.1013,5.1151,5.1095,5.1033,5.1091,5.1089,5.119,5.1203,5.1237,5.1358,5.1365,5.1296,5.1301,5.1304,5.1307,0,0,0,0,0,0,0,5.0728,5.0749,5.0947,5.0921,5.0929,5.094,5.0958,5.104,5.1118,5.1038,5.1042,5.1061,5.1193,5.1229,5.1241,5.1367,5.1296,5.1303,5.1308,5.1311,5.1565,5.1567,0,0,0,0,0,0,5.0711,5.074,5.0942,5.0952,5.0829,5.0946,5.0966,5.1012,5.1117,5.1132,5.1062,5.1062,5.1216,5.1232,5.1247,5.135,5.1304,5.1312,5.1316,5.1563,5.1565,5.1567,0,0,0,0,0,0,5.0704,5.0728,5.0935,5.0847,5.0875,5.0953,5.1004,5.1016,5.1053,5.1135,5.1149,5.1085,5.1216,5.1236,5.1325,5.1356,5.1315,5.1323,5.1561,5.1564,5.1566,5.1553,0,0,0,0,0,0,5.0696,5.0726,5.0756,5.0848,5.0879,5.1009,5.1006,5.102,5.1066,5.1068,5.116,5.1174,5.1216,5.1313,5.1333,5.1366,5.1329,5.1558,5.1562,5.1565,5.1551,5.1555,5.1558,0,0,0,0,0,5.0687,5.0744,5.0757,5.0781,5.0918,5.1011,5.1029,5.1077,5.1069,5.11,5.1154,5.1171,5.1349,5.1321,5.1345,5.1381,5.1556,5.1561,5.1565,5.1549,5.1554,5.1558,0,0,0,0,0,0,5.0653,5.0757,5.0772,5.0861,5.0927,5.1018,5.1059,5.108,5.1149,5.1148,5.1205,5.1225,5.1311,5.1355,5.1322,5.1465,5.1453,5.1462,5.1433,5.1438,5.1442,5.143,5.1336,0,0,0,0,0,5.0656,5.0722,5.081,5.088,5.0913,5.098,5.1022,5.1054,5.1124,5.1152,5.1212,5.1279,5.1351,5.1397,5.1467,5.1557,5.1579,5.1594,5.1598,5.16,5.1608,5.1662,5.167,5.1581,5.1581,5.1581,0,0,5.0663,5.0728,5.0766,5.0875,5.093,5.0998,5.1003,5.1074,5.1126,5.1163,5.1251,5.1297,5.1377,5.1467,5.151,5.1507,5.1637,5.1606,5.1607,5.1614,5.1667,5.1676,5.1683,5.1584,5.1584,5.1583,0,0,5.0711,5.0766,5.0832,5.0888,5.0971,5.1016,5.1032,5.1121,5.1153,5.1243,5.1273,5.1335,5.1457,5.1513,5.1558,5.1631,5.165,5.1652,5.1672,5.1724,5.1731,5.1738,5.1766,5.1775,5.1659,5.1659,5.1659,0,5.0709,5.0813,5.0863,5.0935,5.0983,5.102,5.1089,5.114,5.1242,5.1275,5.1269,5.1425,5.1481,5.1587,5.1605,5.1639,5.1661,5.1642,5.1726,5.1733,5.174,5.1768,5.1778,5.1659,5.1659,5.1659,5.1659,0,5.0808,5.088,5.0923,5.1022,5.1075,5.1145,5.1207,5.1255,5.1283,5.1329,5.1421,5.149,5.1577,5.1604,5.1631,5.1715,5.171,5.1715,5.1704,5.1747,5.1775,5.1786,5.1659,5.1659,5.1659,5.1659,0,0,5.0838,5.0966,5.0982,5.1028,5.1124,5.1181,5.1253,5.1339,5.138,5.1449,5.1513,5.1616,5.1622,5.1673,5.1707,5.1752,5.181,5.1752,5.1755,5.1762,5.191,5.1907,5.1918,5.1823,5.1825,5.1827,5.1904,0,5.09,5.103,5.1079,5.1187,5.1255,5.1293,5.1357,5.1423,5.1469,5.1534,5.1585,5.1659,5.1659,5.1691,5.1737,5.1792,5.184,5.1787,5.1884,5.1886,5.1864,5.1932,5.1929,5.1998,5.1914,5.1916,5.1918,0,5.0988,5.1061,5.1175,5.1266,5.1297,5.1353,5.1437,5.1498,5.1575,5.1606,5.1664,5.1696,5.1775,5.1759,5.187,5.1833,5.1875,5.1909,5.1913,5.1924,5.1905,5.1948,5.2021,5.2032,5.1934,5.1933,5.1932,0,5.1002,5.1128,5.1214,5.1252,5.1359,5.1399,5.1445,5.1521,5.157,5.1644,5.1677,5.1758,5.1803,5.1866,5.1919,5.1902,5.2026,5.2014,5.2055,5.2054,5.208,5.2078,5.2163,5.2104,5.2104,5.2104,5.2103,0,5.1067,5.1136,5.1222,5.1274,5.1354,5.1411,5.1488,5.1537,5.1604,5.1669,5.1706,5.1765,5.1832,5.19,5.1943,5.203,5.2049,5.2077,5.2087,5.2074,5.2071,5.2104,5.2101,5.2107,5.2106,5.2105,5.2105,0,5.1095,5.1155,5.1252,5.1347,5.1372,5.1427,5.1508,5.1562,5.161,5.1691,5.1713,5.1789,5.1872,5.1932,5.2038,5.2067,5.2161,5.217,5.2135,5.2141,5.2179,5.2175,5.229,5.2309,5.2235,5.2235,5.2236,0,5.1133,5.1188,5.1289,5.1335,5.1382,5.1455,5.1507,5.1565,5.1617,5.1711,5.1754,5.1839,5.1911,5.2042,5.2107,5.2189,5.2203,5.2237,5.2215,5.2202,5.2206,5.2203,5.221,5.224,5.2241,5.2241,5.2242,0,5.1196,5.1224,5.1296,5.138,5.1441,5.1509,5.1578,5.1614,5.1685,5.1742,5.1828,5.1884,5.1994,5.2079,5.2169,5.2217,5.2243,5.2248,5.2263,5.225,5.2229,5.2244,5.2146,5.2245,5.2245,5.2245,5.2245,5.2244,5.1232,5.1284,5.1364,5.1444,5.1503,5.1568,5.1624,5.168,5.1752,5.1847,5.1877,5.1967,5.2046,5.2169,5.2219,5.2291,5.2289,5.2309,5.2315,5.2319,5.232,5.2216,5.2307,5.2307,5.2307,5.2307,5.2307,0,5.1298,5.1352,5.1426,5.1523,5.1587,5.1605,5.1683,5.1736,5.1815,5.1886,5.1957,5.2057,5.2141,5.2213,5.23,5.2344,5.2358,5.2365,5.2363,5.2375,5.2315,5.2295,5.2353,5.2353,5.2353,5.2353,5.2353,5.2353,5.134,5.143,5.1467,5.1587,5.1641,5.1729,5.1773,5.1834,5.1891,5.2002,5.2072,5.2119,5.2192,5.2285,5.2364,5.2383,5.2414,5.2419,5.2441,5.2384,5.2379,5.2374,5.2355,5.2425,5.2425,5.2496,5.2497,5.2497]}]]